Zurück zum Katalog

IRNSS 1F

AktivNavigationGEO
NORAD 41384·PAYLOAD·🇮🇳 India

Gestartet Mar 10, 2016 von Satish Dhawan Space Centre

Loading…

TLE

AktuellSource: CelesTrak SupGP

Epoche: Sep 13, 2026, 23:59 UTC

1 41384C 16015A   26256.99979167  .00000244  00000+0  00000+0 0  2565
2 41384   5.5669  94.7260 0019886 175.6205 115.0524  1.00276453    16

Verfolge IRNSS 1F in Echtzeit mit AllMySat

Download on the App Store